When you browse on this site, cookies collect data to enhance your experience and personalize the content and advertising you see.
Visit our Privacy Policy to learn more. By continuing to use the site, you agree to this use of cookies and data.
  • In Österreich
  • Länderverzeichnis
  • Für 7 Tage
  • Wassertemperatur
  • Wetterkarte
  • News
  • Widgets
  • user-avatar
    Anmelden

    Stündliche Wetter Mixquiahuala

    Heute, 18 Januar, Samstag

    Zeit Temperatur Niederschläge Wind Luftdruck Luftfeuchtigkeit
    00:00 +15°C° 0.1 mm 2 m/S 603 mmHg 85%
    01:00 +15°C° 0.1 mm 2 m/S 602 mmHg 87%
    02:00 +15°C° 0.1 mm 1 m/S 602 mmHg 88%
    03:00 +14°C° 0.1 mm 1 m/S 602 mmHg 89%
    04:00 +14°C° 0.1 mm 1 m/S 602 mmHg 90%
    05:00 +14°C° 0 mm 1 m/S 602 mmHg 90%
    06:00 +14°C° 0.1 mm 1 m/S 602 mmHg 88%
    07:00 +14°C° 0.1 mm 1 m/S 603 mmHg 86%
    08:00 +15°C° 0.1 mm 1 m/S 603 mmHg 84%
    09:00 +16°C° 0.1 mm 2 m/S 604 mmHg 76%
    10:00 +18°C° 0.1 mm 2 m/S 604 mmHg 69%
    11:00 +19°C° 0.1 mm 3 m/S 604 mmHg 62%
    12:00 +20°C° 0.1 mm 3 m/S 604 mmHg 59%
    13:00 +20°C° 0.1 mm 4 m/S 603 mmHg 56%
    14:00 +21°C° 0.1 mm 4 m/S 603 mmHg 54%
    15:00 +20°C° 0.3 mm 4 m/S 603 mmHg 58%
    16:00 +19°C° 0.3 mm 4 m/S 602 mmHg 63%
    17:00 +18°C° 0.3 mm 4 m/S 602 mmHg 68%
    18:00 +17°C° 0.5 mm 3 m/S 603 mmHg 73%
    19:00 +16°C° 0.5 mm 2 m/S 603 mmHg 78%
    20:00 +16°C° 0.5 mm 2 m/S 603 mmHg 83%
    21:00 +15°C° 0.3 mm 2 m/S 603 mmHg 85%
    22:00 +15°C° 0.3 mm 2 m/S 603 mmHg 87%
    23:00 +14°C° 0.3 mm 1 m/S 602 mmHg 89%

    Morgen, 19 Januar, Sonntag

    Zeit Temperatur Niederschläge Wind Luftdruck Luftfeuchtigkeit
    00:00 +14°C° 0.1 mm 2 m/S 602 mmHg 89%
    01:00 +14°C° 0.1 mm 2 m/S 602 mmHg 89%
    02:00 +14°C° 0.1 mm 2 m/S 602 mmHg 89%
    03:00 +14°C° 0.1 mm 2 m/S 602 mmHg 89%
    04:00 +14°C° 0.1 mm 2 m/S 602 mmHg 89%
    05:00 +14°C° 0.1 mm 2 m/S 602 mmHg 89%
    06:00 +14°C° 0.1 mm 2 m/S 603 mmHg 87%
    07:00 +15°C° 0.1 mm 2 m/S 604 mmHg 86%
    08:00 +15°C° 0.1 mm 2 m/S 604 mmHg 84%
    09:00 +15°C° 0.1 mm 2 m/S 604 mmHg 80%
    10:00 +16°C° 0.1 mm 3 m/S 604 mmHg 77%
    11:00 +15°C° 0.1 mm 4 m/S 605 mmHg 74%
    12:00 +15°C° 0.1 mm 4 m/S 604 mmHg 73%
    13:00 +15°C° 0.1 mm 4 m/S 604 mmHg 73%
    14:00 +15°C° 0.1 mm 4 m/S 603 mmHg 72%
    15:00 +15°C° 0.1 mm 4 m/S 603 mmHg 75%
    16:00 +14°C° 0.1 mm 4 m/S 603 mmHg 78%
    17:00 +13°C° 0.1 mm 4 m/S 603 mmHg 81%
    18:00 +12°C° 1.6 mm 3 m/S 603 mmHg 84%
    19:00 +13°C° 1.6 mm 2 m/S 604 mmHg 87%
    20:00 +12°C° 1.6 mm 2 m/S 604 mmHg 91%
    21:00 +12°C° 1.7 mm 1 m/S 604 mmHg 90%
    22:00 +12°C° 1.7 mm 1 m/S 604 mmHg 89%
    23:00 +12°C° 1.7 mm 1 m/S 605 mmHg 87%

    übermorgen, 20 Januar, Montag

    Zeit Temperatur Niederschläge Wind Luftdruck Luftfeuchtigkeit
    00:00 +12°C° 0.4 mm 1 m/S 604 mmHg 89%
    01:00 +12°C° 0.4 mm 1 m/S 604 mmHg 90%
    02:00 +12°C° 0.4 mm 1 m/S 604 mmHg 91%
    03:00 +12°C° 0.4 mm 1 m/S 604 mmHg 91%
    04:00 +12°C° 0.4 mm 1 m/S 604 mmHg 91%
    05:00 +12°C° 0.4 mm 1 m/S 604 mmHg 91%
    06:00 +12°C° 0.1 mm 1 m/S 604 mmHg 90%
    07:00 +12°C° 0.1 mm 1 m/S 605 mmHg 89%
    08:00 +12°C° 0.1 mm 2 m/S 605 mmHg 87%
    09:00 +13°C° 0 mm 2 m/S 605 mmHg 85%
    10:00 +13°C° 0 mm 2 m/S 605 mmHg 83%
    11:00 +12°C° 0 mm 3 m/S 605 mmHg 81%
    12:00 +13°C° 0 mm 3 m/S 605 mmHg 77%
    13:00 +13°C° 0 mm 3 m/S 605 mmHg 74%
    14:00 +14°C° 0 mm 3 m/S 604 mmHg 70%
    15:00 +13°C° 0 mm 3 m/S 604 mmHg 73%
    16:00 +13°C° 0 mm 3 m/S 604 mmHg 75%
    17:00 +12°C° 0 mm 3 m/S 603 mmHg 78%
    18:00 +11°C° 0 mm 3 m/S 604 mmHg 82%
    19:00 +12°C° 0 mm 2 m/S 604 mmHg 85%
    20:00 +10°C° 0 mm 2 m/S 604 mmHg 88%
    21:00 +10°C° 0 mm 2 m/S 604 mmHg 88%
    22:00 +11°C° 0 mm 1 m/S 604 mmHg 88%
    23:00 +11°C° 0 mm 1 m/S 604 mmHg 88%

    21 Januar, Dienstag

    Zeit Temperatur Niederschläge Wind Luftdruck Luftfeuchtigkeit
    00:00 +11°C° 0 mm 1 m/S 604 mmHg 86%
    01:00 +11°C° 0 mm 1 m/S 604 mmHg 84%
    02:00 +11°C° 0 mm 1 m/S 603 mmHg 82%
    03:00 +11°C° 0 mm 1 m/S 603 mmHg 83%
    04:00 +11°C° 0 mm 1 m/S 603 mmHg 83%
    05:00 +11°C° 0 mm 1 m/S 603 mmHg 83%
    06:00 +12°C° 0 mm 1 m/S 603 mmHg 80%
    07:00 +12°C° 0 mm 1 m/S 604 mmHg 77%
    08:00 +12°C° 0 mm 1 m/S 604 mmHg 74%
    09:00 +14°C° 0 mm 1 m/S 604 mmHg 66%
    10:00 +16°C° 0 mm 1 m/S 604 mmHg 59%
    11:00 +17°C° 0 mm 0 m/S 605 mmHg 51%
    12:00 +20°C° 0 mm 1 m/S 605 mmHg 47%
    13:00 +20°C° 0 mm 2 m/S 604 mmHg 43%
    14:00 +21°C° 0 mm 2 m/S 604 mmHg 40%
    15:00 +20°C° 0 mm 3 m/S 603 mmHg 47%
    16:00 +19°C° 0 mm 3 m/S 602 mmHg 54%
    17:00 +17°C° 0 mm 3 m/S 602 mmHg 62%
    18:00 +16°C° 0 mm 3 m/S 602 mmHg 69%
    19:00 +15°C° 0 mm 2 m/S 602 mmHg 76%
    20:00 +14°C° 0 mm 2 m/S 602 mmHg 84%
    21:00 +13°C° 0 mm 1 m/S 601 mmHg 85%
    22:00 +13°C° 0 mm 1 m/S 601 mmHg 85%
    23:00 +12°C° 0 mm 0 m/S 601 mmHg 86%

    22 Januar, Mittwoch

    Zeit Temperatur Niederschläge Wind Luftdruck Luftfeuchtigkeit
    00:00 +12°C° 0 mm 0 m/S 601 mmHg 86%
    01:00 +13°C° 0 mm 1 m/S 600 mmHg 86%
    02:00 +13°C° 0 mm 1 m/S 600 mmHg 85%
    03:00 +12°C° 0 mm 1 m/S 600 mmHg 84%
    04:00 +12°C° 0 mm 1 m/S 599 mmHg 84%
    05:00 +12°C° 0 mm 1 m/S 599 mmHg 83%
    06:00 +13°C° 0 mm 1 m/S 600 mmHg 76%
    07:00 +15°C° 0 mm 1 m/S 601 mmHg 70%
    08:00 +16°C° 0 mm 2 m/S 601 mmHg 64%
    09:00 +18°C° 0 mm 2 m/S 602 mmHg 56%
    10:00 +19°C° 0 mm 2 m/S 602 mmHg 48%
    11:00 +21°C° 0 mm 2 m/S 602 mmHg 40%
    12:00 +22°C° 0 mm 3 m/S 602 mmHg 38%
    13:00 +23°C° 0 mm 4 m/S 601 mmHg 35%
    14:00 +25°C° 0 mm 4 m/S 601 mmHg 32%
    15:00 +23°C° 0 mm 5 m/S 601 mmHg 37%
    16:00 +22°C° 0 mm 5 m/S 600 mmHg 41%
    17:00 +20°C° 0 mm 5 m/S 600 mmHg 46%
    18:00 +19°C° 0 mm 4 m/S 600 mmHg 51%
    19:00 +18°C° 0 mm 3 m/S 600 mmHg 56%
    20:00 +17°C° 0 mm 2 m/S 600 mmHg 61%
    21:00 +16°C° 0 mm 1 m/S 600 mmHg 64%
    22:00 +15°C° 0 mm 1 m/S 600 mmHg 67%
    23:00 +13°C° 0 mm 0 m/S 599 mmHg 71%

    23 Januar, Donnerstag

    Zeit Temperatur Niederschläge Wind Luftdruck Luftfeuchtigkeit
    00:00 +14°C° 0 mm 1 m/S 599 mmHg 70%
    01:00 +14°C° 0 mm 1 m/S 598 mmHg 70%
    02:00 +13°C° 0 mm 1 m/S 598 mmHg 70%
    03:00 +13°C° 0 mm 1 m/S 598 mmHg 69%
    04:00 +13°C° 0 mm 1 m/S 598 mmHg 67%
    05:00 +13°C° 0 mm 1 m/S 598 mmHg 66%
    06:00 +14°C° 0 mm 1 m/S 599 mmHg 62%
    07:00 +14°C° 0 mm 1 m/S 600 mmHg 58%
    08:00 +15°C° 0 mm 1 m/S 600 mmHg 54%
    09:00 +16°C° 0 mm 2 m/S 601 mmHg 48%
    10:00 +17°C° 0 mm 2 m/S 601 mmHg 41%
    11:00 +19°C° 0 mm 3 m/S 601 mmHg 35%
    12:00 +17°C° 0 mm 5 m/S 600 mmHg 37%
    13:00 +17°C° 0 mm 7 m/S 600 mmHg 40%
    14:00 +16°C° 0 mm 9 m/S 599 mmHg 42%
    15:00 +16°C° 0 mm 7 m/S 599 mmHg 44%
    16:00 +15°C° 0 mm 5 m/S 598 mmHg 46%
    17:00 +15°C° 0 mm 4 m/S 598 mmHg 48%
    18:00 +16°C° 0 mm 3 m/S 598 mmHg 50%
    19:00 +15°C° 0 mm 1 m/S 599 mmHg 52%
    20:00 +14°C° 0 mm 0 m/S 599 mmHg 53%
    21:00 +13°C° 0 mm 0 m/S 598 mmHg 55%
    22:00 +13°C° 0 mm 0 m/S 598 mmHg 58%
    23:00 +12°C° 0 mm 0 m/S 598 mmHg 60%
    Mehr zeigen